Regional Weather Roundup
Issued by NWS

Home | Current Version | Previous Version | Text Only | Print | Product List | Glossary On
Versions: 1 2 3 4 5 6 7 8 9 10 11 12 13 14 15 16 17 18 19 20 21 22 23 24 25 26 27
000
ASUS44 KJAN 211510
RWRMS

MISSISSIPPI HOURLY WEATHER ROUNDUP
NATIONAL WEATHER SERVICE JACKSON MS
900 AM CST SAT JAN 21 2017

NOTE: "FAIR: INDICATES FEW OR NO CLOUDS BELOW 12,000 FEET WITH NO
SIGNIFICANT WEATHER AND/OR OBSTRUCTIONS TO VISIBILITY.

MSZ001>002-007>008-010>013-018>021-025>028-034>036-211600-
NORTHWEST MISSISSIPPI

CITY           SKY/WX    TMP DP  RH WIND       PRES   REMARKS
BATESVILLE     FAIR      62  53  73 SE5       29.69S
CLARKSDALE     PTSUNNY   63  57  82 SE9       29.68R
CLEVELAND      FAIR      61  60  94 S8G16     29.69R
GREENWOOD      SUNNY     61  54  77 SE7       29.69F
GREENVILLE     SUNNY     61  55  81 S9        29.69R
OLIVE BRANCH   MOSUNNY  N/A N/A N/A SE12G21   29.66F
OXFORD         FAIR      59  50  72 S6        29.71S
TUNICA         SUNNY     61  54  77 SE12      29.69R
WINONA         FAIR      58  56  92 CALM      29.72R
$$

MSZ003>006-009-014>017-022>024-029>033-037>039-211600-
NORTHEAST MISSISSIPPI

CITY           SKY/WX    TMP DP  RH WIND       PRES   REMARKS
COLUMBUS AFB   NOT AVBL
CORINTH        FAIR      59  52  77 CALM      29.71S
GOLDN TRIANGLE MOSUNNY   59  54  82 SE7       29.66R
STARKVILLE     FAIR      57  55  94 SE5       29.72R
TUPELO         PTSUNNY   58  53  84 W5        29.72R
$$

MSZ040-058-211600-
CENTRAL MISSISSIPPI

CITY           SKY/WX    TMP DP  RH WIND       PRES   REMARKS
JACKSON INTL   MOSUNNY   62  58  86 SE8       29.70S
JACKSON HAWKNS SUNNY     61  57  87 SE7       29.70S
MADISON        FAIR      59  59 100 SE5       29.70R
MERIDIAN KEY   CLOUDY    61  60  97 VRB3      29.74R
MERIDIAN NAS   CLOUDY    60  55  83 SE5       29.74R
RAYMOND        FAIR      63  59  88 SE10      29.69S
VICKSBURG VKS  SUNNY     63  57  82 CALM      29.69R
$$

MSZ059>079-211600-
SOUTH MISSISSIPPI

CITY           SKY/WX    TMP DP  RH WIND       PRES   REMARKS
BROOKHAVEN     PTSUNNY   61  59  94 SE8       29.73R
HATTIESBURG    NOT AVBL
LAUREL         FAIR      60  60 100 NE5       29.73R
MCCOMB         MOSUNNY   61  57  87 SE8       29.72S
NATCHEZ        PTSUNNY   63  55  77 S7        29.70R
PINE BELT      CLOUDY    59  55  88 E3        29.74S
$$

MSZ080>082-211600-
COASTAL MISSISSIPPI

CITY           SKY/WX    TMP DP  RH WIND       PRES   REMARKS
BAY ST LOUIS   LGT RAIN  61  57  88 SE6       29.76R
BILOXI         CLOUDY    64  61  90 CALM      29.77R
PASCAGOULA     LGT RAIN  62  60  93 NE3       29.76F
GULFPORT       LGT RAIN  63  61  93 NE6       29.77R FOG
$$

LAZ007>009-015>016-023>026-211600-
NORTHEAST LOUISIANA

CITY           SKY/WX    TMP DP  RH WIND       PRES   REMARKS
BASTROP        FAIR      62  61  98 CALM      29.69R
TALLULAH/VBURG SUNNY     61  57  87 NE6       29.69R
VIDALIA        PTSUNNY   61  57  86 S5        29.74R
$$




USA.gov is the U.S. government's official web portal to all federal, state and local government web resources and services.